DECAYED
Showing default

LACE-1, 59118 (Decayed)

Orbit data source: Space-Track

LACE-1, 59118 was a payload satellite owned by NIWC Pacific (US) in LEO that was launched on Mon, 04 Mar 2024 UTC via an FALCON 9 launch vehicle from the Air Force Western Test Range (AFWTR). Payload-class satellites include a variety of spacecraft equipped with specific instruments for various scientific and technological missions. These include communications satellites like Starlink; space stations such as the ISS; scientific satellites like the Hubble; Earth observation satellites from companies like Planet Labs, Umbra, and HawkEye 360; GPS; miniature CubeSats for education and research; and military/defense satellites.

Not visible in the next 10 days
Identifier
59118, 2024-043W
Orbit
Decayed
Country
Flag of USUS
Related business
Manufacturer
PUMPK/NIWCP
Mission
Decayed Defense Technology
Bus & Motor
CUBESAT 6U, Unknown motor
Mass
~10 kg wet, ~10 kg dry
Launch date (UTC)
2024-03-04 (2 years ago)
Launch vehicle
FALCON 9
Launch site
Air Force Western Test Range (AFWTR)
Object type
Payload
Rocket body
Debris
Shape & HBR
Box + 4 Pan, 0.1 m
Radar Cross Section
0.080 m², Medium (>0.1 m² and < 1m²)

Expand to show TLE details & history
Last TLE update: 1 year ago

TLE from 1 year ago
0 LACE-1
1 59118U 24043W   25138.97701806  .11616415  26017-5  59933-3 0  9992
2 59118  97.4688 279.1037 0013725 262.2912  97.6829 16.41284763 67656
Epoch: 2025-05-18T23:26Z
TLE epoch observation values (Epoch: 2025-05-18T23:26:54.360Z)
Latitude
-0.00006°
Longitude
50.48096°
Altitude
166.851 km
Speed
7.805 km/s
True Right ascension
18h 36m 24s
True Declination
0° 00' 00"
Sunlit
Object was in full shadow at epoch
Visualization orbit readout
Latitude
Unknown
Longitude
Unknown
Altitude
Unknown
Speed
Unknown
Apparent Right ascension
Unknown
Apparent Declination
Unknown
Sunlit
N/A
Visualization observer readout
Local Sidereal Time
00:44:36
Azimuth
Unknown
Elevation
Unknown
Doppler factor
Unknown
Orbital elements
Apogee altitude
168.169 km
Perigee altitude
150.224 km
Semi-major axis
6,537.333 km
Eccentricity
0.00137
Inclination
97.4688°
RAAN
279.1037°
Arg. of periapsis
262.2912°
True anomaly
97.83873°
Mean anomaly
97.6829°
Eccentric anomaly
97.76082°
Mean motion
4.10622 °/min
Orbital period
87.67 mins
BSTAR
0.00059933
Loading maneuver chart data...
Computing Atmospheric mass density...
Loading historical data...
Loading historical data...
Loading historical data...
Loading historical data...
Loading historical data...
Loading historical data...
Loading historical data...

Documentation

Showing up to 5 results
|